Погода в Лисицино

Россия / Костромская область     58°38′38″N   44°32′39″E
темп.,
°C
ветер,
м/с
пор.,
м/с
влажн.,
%
обл.,
%
осадки,
мм/ч
давл.,
гПа
погр.,
м
2 августа, пн
пн200:00+16зюз269629 2.7 1009157
03:00+15юз2998100 3.2 1009225
06:00+16юз3898100 0.0 1009293
09:00+20зюз2483100 0.0 1010445
12:00+25юз254817 0.0 10091466
15:00+28юз353794 0.0 10082273
18:00+24ю2559100 0.0 1008132
21:00+17юв389596 1.1 1007149
3 августа, вт
вт300:00+18юв41197100 0.6 1006298
03:00+17ююв411958 0.6 1005281
06:00+18ю4138936 0.0 1004408
09:00+24ююз486398 0.0 1004675
12:00+27юз575349 0.0 10051595
15:00+26зюз5745100 0.0 10061588
18:00+23з365764 0.0 1006857
21:00+18юз237527 0.0 100847
4 августа, ср
ср400:00+17ююз1170100 0.0 100911
03:00+17зюз246782 0.0 100993
06:00+17з267393 0.0 1010193
09:00+22зсз34510 0.0 1011871
12:00+24з45376 0.0 10112281
15:00+22зсз3645100 0.0 1012790
18:00+21сз2650100 0.0 1013228
21:00+18ссз2754100 0.0 1015242
5 августа, чт
чт500:00+16ссз2758100 0.0 1016209
03:00+15ссз1462100 0.0 1017113
06:00+14с246894 0.0 1018134
09:00+18ссв235356 0.0 1019539
12:00+20с4336100 0.0 10181792
15:00+22ссз123083 0.0 10182496
18:00+18св2448100 0.0 1019119
21:00+14всв2259100 0.0 101917
6 августа, пт
пт600:00+12всв226673 0.0 102021
03:00+12в226681 0.0 102057
06:00+13всв1466100 0.0 1020126
09:00+17юв1152100 0.0 1020478
12:00+20в023998 0.0 10201896
15:00+19св134296 0.0 10191824
18:00+18зюз1256100 0.0 101954
21:00+15св375862 0.0 1020191